Probability
5 2 0 0 0 0 0 1 1 1 0 0 0 0 0 0 0 0 0 0 0 0 0 0 0 0 0 0 0 0 0 0 0 0 0 0 0 0 0 0 0 0 0
6 3 1 0 0 0 0 0 0 0 0 0 0 0 0 0 0 0 0 0 0 0 0 0 1 1 1 1 0 0 0 0 0 0 0 0 0 0 0 0 0 0 0
7 5 2 0 0 0 0 0 0 0 0 0 0 0 0 0 0 0 0 0 0 0 0 0 1 2 2 1 0 0 0 0 0 0 0 0 0 0 0 0 0 0 0
6 4 1 0 0 0 0 0 0 0 0 0 0 0 0 0 0 0 0 0 0 0 0 0 1 1 1 1 0 0 0 0 0 0 0 0 0 0 0 0 0 0 0
5 3 1 0 0 0 0 0 0 0 0 0 0 0 0 0 0 0 0 0 0 0 0 0 0 0 0 0 0 0 0 0 0 0 0 0 0 0 0 0 0 0 0
5 4 2 1 1 1 0 0 0 0 0 0 0 0 0 0 0 0 0 0 0 0 0 0 0 0 0 0 0 0 0 0 0 0 0 0 0 0 0 0 0 0 0
4 3 3 2 2 1 0 0 0 0 0 0 0 0 0 0 0 0 0 0 0 0 0 0 0 0 0 0 0 0 0 0 0 0 0 0 0 0 0 0 0 0 0
3 3 3 3 1 1 0 0 0 0 0 0 0 0 0 0 0 0 0 0 0 0 0 0 0 0 0 0 0 0 0 0 0 0 0 0 0 0 1 0 0 0 0
3 3 3 3 1 1 0 0 0 0 0 0 0 0 0 0 0 0 0 0 0 0 0 0 0 0 0 0 0 0 0 0 0 0 0 0 0 0 0 0 0 0 0
2 2 2 2 2 1 0 0 0 0 0 0 0 0 0 0 0 0 0 0 0 0 0 0 0 0 0 0 0 0 0 0 0 0 0 0 0 0 0 0 0 0 0
1 1 1 1 1 1 0 0 0 0 0 0 0 0 0 0 0 0 0 0 0 0 0 0 0 0 0 0 0 0 0 0 0 0 0 0 0 0 0 0 0 0 0
0 0 0 0 0 0 0 0 0 0 0 0 0 0 0 0 0 0 0 0 0 0 0 0 0 0 0 0 0 0 0 0 0 0 0 0 0 0 0 0 0 0 0
0 0 0 0 0 0 0 0 0 0 0 0 0 0 0 0 0 0 0 0 0 0 0 0 0 0 0 0 0 0 0 0 0 0 0 0 0 0 0 0 0 0 0
0 0 0 0 0 0 0 0 0 0 0 0 0 0 0 0 0 0 0 0 0 0 0 0 0 0 0 0 0 0 0 0 0 0 0 0 0 0 0 0 0 0 0
0 0 0 0 0 0 0 0 0 0 0 0 0 0 0 0 0 0 0 0 0 0 0 0 0 0 0 0 0 0 0 0 0 0 0 0 0 0 0 0 0 0 0
0 0 0 0 0 0 0 0 0 0 0 0 0 0 0 0 0 0 0 0 0 0 0 0 0 0 0 0 0 0 0 0 0 0 0 0 0 0 0 0 0 0 0
0 0 0 0 0 0 0 0 0 0 0 0 0 0 0 0 0 0 0 0 0 0 0 0 0 0 0 0 0 0 0 0 0 0 0 0 0 0 0 0 0 0 0
0 0 0 0 0 0 0 0 0 0 0 0 0 0 0 0 0 0 0 0 0 0 0 0 0 0 0 0 0 0 0 0 0 0 0 0 0 0 0 0 0 0 0
0 0 0 0 0 0 0 0 0 0 0 0 0 0 0 0 0 0 0 0 0 0 0 0 0 0 0 0 0 0 0 0 0 0 0 0 0 0 0 0 0 0 0
0 0 0 0 0 0 0 0 0 0 0 0 0 0 0 0 0 0 0 0 0 0 0 0 0 0 0 0 0 0 0 0 0 0 0 0 0 0 0 0 0 0 0
0 0 0 0 0 0 0 0 0 0 0 0 0 0 0 0 0 0 0 0 0 0 0 0 0 0 0 0 0 0 0 0 0 0 0 0 0 0 0 0 0 0 0
0 0 0 0 0 0 0 0 0 0 0 0 0 0 0 0 0 0 0 0 0 0 0 0 0 0 0 0 0 0 0 0 0 0 0 0 0 0 0 0 0 0 0
0 0 0 0 0 0 0 0 0 0 0 0 0 0 0 0 0 0 0 0 0 0 0 0 0 0 0 0 0 0 0 0 0 0 0 0 0 0 0 0 0 0 0
0 0 0 0 0 0 0 0 0 0 0 0 0 0 0 0 0 0 0 0 0 0 0 0 0 0 0 0 0 0 0 0 0 0 0 0 0 0 0 0 0 0 0
0 0 0 0 0 0 0 0 0 0 0 0 0 0 0 0 0 0 0 0 0 0 0 0 0 0 0 0 0 0 0 0 0 0 0 0 0 0 0 0 0 0 0
0 0 0 0 0 0 0 0 0 0 0 0 0 0 0 0 0 0 0 0 0 0 0 0 0 0 0 0 0 0 0 0 0 0 0 0 0 0 0 0 0 0 0
Wind_Speed
3 2 2 1 1 2 2 2 2 2 2 2 1 1 1 1 1 1 1 3 3 4 4 4 3 3 4 3 3 4 4 4 4 5 5 5 6 6 7 7 8 8 8
3 3 2 2 1 1 2 2 2 2 1 1 1 1 1 0 0 0 1 2 3 4 4 4 4 4 4 4 5 5 5 5 5 6 6 6 7 7 7 8 8 8 9
4 3 3 2 2 1 2 2 2 2 1 1 1 1 1 1 1 1 1 1 2 4 5 5 5 5 5 5 5 6 6 6 6 6 6 7 7 7 8 8 9 9 9
4 3 3 2 2 2 2 2 2 2 1 1 0 0 1 1 1 0 1 1 1 1 3 5 6 6 6 5 5 6 6 7 7 7 7 7 7 8 8 9 9 10 10
4 3 3 2 3 2 1 2 1 2 1 1 1 0 0 0 1 1 1 0 0 1 1 3 5 7 7 7 7 7 7 7 7 7 7 8 8 8 9 9 10 10 11
3 3 3 3 3 2 2 1 2 1 1 1 1 1 1 1 1 1 1 1 1 1 1 2 2 4 7 7 7 7 8 8 8 8 8 8 9 9 10 10 10 11 12
3 3 2 3 3 3 3 2 2 2 1 1 1 1 1 1 0 1 1 1 1 1 1 1 1 1 3 7 8 8 8 9 9 9 9 9 9 10 10 11 11 12 12
3 3 3 3 3 2 3 2 2 2 1 1 2 1 1 2 2 1 1 1 1 1 1 2 2 2 2 2 5 8 8 9 10 10 9 10 10 11 11 11 12 12 13
3 3 3 3 3 3 3 3 3 3 2 1 1 3 2 2 2 2 1 1 1 1 1 1 1 1 2 2 2 5 8 9 10 11 11 11 11 11 11 11 12 13 13
3 3 3 3 3 2 3 2 2 2 3 2 1 1 1 2 2 2 2 1 1 1 2 1 1 1 1 1 3 7 9 9 10 11 11 12 12 12 12 12 12 13 13
2 2 3 3 3 2 2 2 2 2 1 2 2 2 1 1 1 2 2 3 2 2 1 1 1 1 1 2 2 5 8 9 10 11 12 12 13 13 13 13 13 13 13
1 1 2 2 2 2 2 2 2 2 2 2 2 2 2 2 2 2 2 2 3 3 2 1 1 1 1 1 3 7 8 9 10 11 11 12 12 13 13 13 13 13 13
1 1 1 2 2 2 2 2 2 2 2 2 2 2 2 2 2 2 2 2 2 3 2 1 2 1 2 2 3 7 8 9 10 10 11 11 11 12 12 13 13 13 13
2 2 2 2 1 2 2 2 2 1 1 1 2 2 1 1 1 2 2 2 1 2 2 3 1 1 2 2 4 7 5 9 10 10 11 11 11 11 11 12 12 13 13
1 2 2 2 1 2 2 2 2 1 2 1 1 2 1 1 1 1 1 2 2 2 3 3 2 2 2 2 5 4 4 8 10 10 10 10 10 10 10 11 11 12 12
2 2 3 2 2 2 2 2 2 2 2 1 1 1 1 1 1 1 1 1 2 3 3 2 2 3 3 4 6 4 4 9 10 10 10 10 10 10 10 10 11 12 12
2 2 2 3 3 2 2 2 2 2 2 1 1 1 1 1 1 1 1 1 1 2 3 3 2 3 3 4 5 3 3 3 4 9 10 10 10 10 10 11 11 12 13
2 2 2 2 2 2 2 3 3 2 2 1 1 1 1 1 1 1 1 1 2 2 2 4 3 3 3 3 4 4 4 4 4 8 10 10 10 10 10 11 11 11 12
2 2 2 2 2 2 2 2 2 2 2 2 1 1 2 1 1 1 1 1 1 1 1 2 4 3 3 3 4 4 4 4 4 6 8 8 9 10 10 11 11 11 12
2 2 2 2 2 2 2 2 2 2 1 1 1 1 2 2 2 2 1 1 1 1 1 2 3 3 3 3 3 4 5 4 4 5 6 6 8 10 10 11 11 12 12
2 2 2 2 1 1 2 2 2 2 1 1 0 1 1 1 1 1 1 1 1 1 1 2 2 3 3 3 3 3 5 5 5 3 4 4 5 4 5 8 10 11 12
2 2 2 2 1 0 2 3 2 2 1 1 1 1 1 1 1 1 2 2 1 1 2 2 2 3 4 4 3 4 4 5 5 3 4 6 4 4 4 4 9 13 13
2 2 1 1 1 0 1 2 3 2 2 1 0 0 1 1 2 0 1 2 3 4 4 2 3 3 4 4 3 4 4 4 5 5 5 6 4 4 4 6 12 12 12
2 1 1 1 1 0 0 1 3 2 2 1 0 0 0 1 1 1 1 1 2 2 3 2 2 3 3 3 2 3 4 4 4 3 3 4 4 5 6 5 9 11 13
1 1 1 1 1 1 1 2 3 2 1 1 1 1 1 0 2 2 1 1 2 2 4 4 4 4 5 5 4 2 3 3 4 4 2 2 3 6 5 4 5 11 13
1 1 1 1 1 1 1 1 2 1 1 0 1 1 2 2 2 2 1 1 1 2 2 3 4 5 4 4 5 2 2 3 3 3 2 3 3 5 5 3 3 5 7
Wind_Direction
144 137 126 116 123 123 129 127 118 109 96 84 79 86 78 72 41 2 343 358 355 351 348 346 342 346 351 355 348 353 347 338 331 326 321 321 321 321 319 315 315 316 317
151 149 143 137 137 147 145 141 139 128 114 102 77 74 80 82 62 1 347 349 358 359 354 356 356 356 357 355 355 352 342 333 330 330 326 325 322 318 316 314 316 315 316
156 155 153 154 161 149 142 128 118 110 107 91 70 44 55 60 64 27 7 2 360 6 6 6 5 1 354 352 355 352 343 337 329 331 333 335 334 333 331 326 324 321 318
158 154 152 163 158 147 145 145 140 130 128 119 92 6 21 30 29 16 25 17 16 10 6 8 4 2 355 349 349 345 341 340 334 332 333 333 332 328 325 322 321 322 322
166 161 160 164 151 151 155 164 143 148 153 149 143 68 10 348 317 356 356 3 23 30 15 6 7 3 356 347 344 340 338 337 334 330 328 328 326 324 323 322 321 320 318
167 161 160 160 151 149 162 161 155 138 149 153 112 55 337 305 310 321 310 340 7 21 17 10 5 357 357 349 343 338 338 338 337 337 333 329 324 321 318 318 319 317 316
159 156 156 156 158 165 177 170 160 146 136 131 106 23 342 331 353 332 339 357 2 1 11 7 7 4 348 352 349 342 339 339 338 338 335 329 323 320 318 318 318 316 314
162 163 161 162 162 158 158 173 159 156 140 135 136 116 345 337 340 351 345 357 345 356 5 2 13 11 358 349 342 347 340 337 338 335 332 328 323 320 319 318 318 318 318
166 163 163 159 162 162 166 179 176 170 168 161 132 144 158 230 302 320 340 358 349 343 332 334 359 357 349 345 331 341 340 337 334 333 328 324 323 321 320 320 320 319 319
166 164 162 159 160 162 162 176 181 180 158 168 154 113 147 152 166 295 314 328 336 324 320 325 328 326 337 329 331 337 337 335 332 330 328 327 325 323 322 321 320 319 319
146 152 153 152 157 160 162 158 166 173 167 166 163 155 136 100 144 176 274 306 322 305 297 289 291 305 317 318 317 324 331 332 331 329 327 326 325 323 322 320 319 319 317
135 137 143 147 150 151 159 165 172 170 174 162 161 157 160 164 181 178 225 268 288 295 302 288 276 279 295 313 319 327 326 327 327 326 325 324 323 321 321 321 320 317 314
164 176 151 148 144 145 145 148 152 160 169 168 176 176 176 180 162 166 184 248 282 293 303 296 270 276 309 321 312 323 322 324 324 323 323 323 322 321 320 319 317 315 315
175 162 153 141 132 129 128 128 123 147 141 154 169 169 166 169 157 166 175 180 280 298 292 278 301 283 312 313 312 326 318 323 323 322 321 320 320 319 319 318 318 318 318
142 144 146 134 129 130 132 128 125 131 137 155 171 166 157 156 142 160 169 176 188 259 276 281 295 310 318 313 318 320 313 320 324 324 321 320 320 320 320 320 319 319 318
136 141 140 142 141 134 132 129 124 132 131 147 146 141 145 134 123 141 181 205 199 208 253 267 273 300 313 316 322 325 315 324 325 325 324 323 324 324 324 322 322 321 320
148 152 157 153 153 148 141 135 142 144 142 145 137 146 155 137 148 169 190 210 224 204 248 282 281 299 307 310 317 316 310 307 310 320 320 321 324 325 324 325 325 322 321
149 156 157 149 147 149 150 154 163 153 155 168 186 169 178 150 181 200 198 226 234 230 231 278 298 307 304 303 307 312 316 315 308 316 320 322 325 328 328 329 330 329 327
143 142 147 154 161 161 155 161 162 160 163 179 196 206 208 175 200 232 234 238 245 263 247 265 293 305 310 314 316 313 309 308 312 319 321 324 330 328 329 329 329 329 328
140 135 139 150 160 160 156 160 157 155 157 173 196 220 221 200 208 218 226 236 246 279 285 282 294 308 313 316 322 321 320 319 313 319 319 325 326 325 327 328 327 327 326
124 123 120 110 112 139 153 154 153 148 149 142 251 274 267 243 241 236 241 228 218 264 288 295 296 310 316 327 323 319 317 320 313 316 318 313 316 315 320 323 324 325 327
102 105 111 120 119 175 153 149 139 146 153 153 171 307 306 285 303 347 326 295 267 263 271 276 287 293 299 308 313 314 318 324 315 324 323 309 311 306 310 309 319 325 327
107 109 119 128 136 181 128 130 134 125 123 130 170 241 314 344 9 360 357 356 346 335 312 286 275 281 288 295 300 305 307 307 297 308 316 301 310 301 305 315 322 324 329
128 138 141 138 120 318 96 123 114 103 103 89 36 323 289 313 331 6 82 35 12 3 336 322 269 279 291 291 280 294 298 304 298 299 312 296 308 305 311 309 319 327 333
122 130 127 113 92 339 21 103 100 104 99 69 21 10 5 314 321 2 51 34 8 6 4 349 336 333 331 330 332 341 329 327 317 312 317 300 308 311 302 291 308 328 332
116 104 73 54 60 331 340 91 99 116 113 30 2 2 347 341 325 346 60 83 345 330 342 358 3 357 351 347 351 344 310 314 316 306 318 326 312 325 313 293 301 318 325